SCP
0 0 0 -0 -0 -0 -0 -0 -0 -0 -0 -0 -0 -0 -0 -0 -0 0 0 0 0 -0 -0 -0 -0 -0 -0 -0 -0 -0 -0 -0 -0 -0 -0 -0 -0 -0 -0 -0 -0 -0 -0
0 0 -0 -0 -0 -0 -0 -0 -0 -0 -0 -0 -0 -0 -0 -0 -0 -0 0 0 0 -0 -0 -0 -0 -0 -0 -0 -0 -0 -0 -0 -0 -0 -0 -0 -0 -0 -0 -0 -0 -0 -0
0 0 0 0 -0 -0 -0 -0 -0 -0 -0 -0 -0 -0 -0 -0 -0 -0 0 0 0 0 -0 -0 -0 -0 -0 -0 -0 -0 -0 -0 -0 -0 -0 0 -0 -0 -0 -0 -0 -0 -0
0 0 0 0 -0 -0 -0 -0 -0 -0 -0 -0 0 0 0 0 0 0 0 0 0 0 -0 -0 -0 -0 -0 -0 -0 -0 -0 -0 -0 0 0 0 0 -0 -0 -0 -0 -0 -0
-0 -0 0 0 0 -0 -0 -0 -0 0 0 0 0 0 0 0 0 0 0 0 0 0 0 -0 -0 -0 0 0 0 0 0 0 0 0 0 0 0 0 0 -0 0 0 0
-0 -0 -0 -0 -0 0 -0 -0 -0 0 0 0 0 0 0 0 0 0 0 0 0 0 0 0 -0 0 0 0 0 0 0 0 0 0 0 0 0 0 0 0 0 0 0
-0 -0 -0 -0 -0 -0 0 0 0 0 0 0 0 0 0 0 0 0 0 0 0 0 0 0 0 0 0 0 0 0 0 0 0 0 0 0 0 0 0 0 0 0 0
-0 -0 -0 -0 -0 -0 -0 0 0 0 0 0 0 0 0 0 0 0 0 0 0 0 0 0 0 0 0 0 0 0 0 0 0 0 0 0 0 0 0 0 0 0 0
-0 -0 -0 -0 -0 -0 -0 -0 0 0 0 0 0 0 0 0 0 0 0 0 0 0 0 0 0 0 0 0 0 0 0 0 0 0 0 0 0 0 0 0 0 0 0
-0 -0 -0 -0 -0 0 0 -0 -0 0 0 0 0 0 0 0 0 0 0 0 0 0 0 0 0 0 0 0 0 0 0 0 0 0 0 0 0 0 0 0 0 0 0
0 0 0 0 0 0 0 0 0 -0 0 0 0 0 0 0 0 0 0 0 0 0 0 0 0 0 0 0 0 0 0 0 0 0 0 0 0 0 0 0 0 0 0
0 0 0 0 0 0 0 0 0 0 0 0 0 0 0 0 0 0 0 0 0 0 0 0 0 0 0 0 0 0 0 0 0 0 0 0 0 0 0 0 0 0 0
0 0 0 0 0 0 0 0 0 0 0 0 0 0 0 0 0 0 0 0 0 0 0 0 0 0 0 0 0 0 0 0 0 0 0 0 0 0 0 0 0 0 0
0 0 0 0 0 0 0 0 0 0 0 0 0 0 0 0 0 0 0 0 0 0 0 0 0 0 0 0 0 0 0 0 0 0 0 0 0 0 0 0 0 0 0
0 0 0 0 0 0 0 0 0 0 0 0 0 0 0 0 0 0 0 0 0 0 0 0 0 0 0 0 0 0 0 0 0 0 0 0 0 0 0 0 0 0 0
0 0 0 0 0 0 0 0 0 0 0 0 0 0 0 0 0 0 0 0 0 0 0 0 0 0 0 0 0 0 0 0 0 0 0 0 0 0 0 0 0 0 0
-0 -0 0 0 0 0 0 0 0 0 0 0 0 0 0 0 0 0 0 0 0 0 0 0 0 0 0 0 0 0 0 0 0 0 0 0 0 0 0 0 0 0 0
0 0 0 0 0 0 0 0 0 0 0 0 0 0 0 0 0 0 0 0 0 0 0 0 0 0 0 0 0 0 0 0 0 0 0 0 0 0 0 0 0 0 0
0 0 0 0 0 0 0 0 0 0 0 0 0 0 0 0 0 0 0 0 0 0 0 0 0 0 0 0 0 0 0 0 0 0 0 0 0 0 0 0 0 0 0
-0 -0 -0 0 0 0 0 0 0 0 0 0 0 0 0 0 0 0 0 0 0 0 -0 0 0 0 0 0 0 0 0 0 0 0 0 0 0 0 0 0 0 0 0
-0 -0 -0 0 0 0 0 0 0 0 0 0 0 0 0 0 0 0 0 0 0 0 0 0 0 0 0 0 0 0 0 0 0 0 0 0 0 0 0 0 0 0 0
-0 -0 -0 -0 -0 -0 -0 -0 -0 -0 -0 -0 0 0 0 0 0 0 0 0 0 0 0 0 0 0 0 0 0 0 0 0 0 0 0 0 0 0 0 0 0 0 0
-0 -0 -0 -0 -0 -0 -0 -0 -0 -0 -0 0 0 0 0 0 -0 -0 0 0 0 0 0 0 0 0 0 0 0 -0 0 0 0 0 0 0 0 0 0 0 0 0 0
-0 -0 -0 -0 -0 -0 -0 -0 -0 -0 -0 -0 -0 -0 -0 -0 -0 -0 -0 -0 -0 -0 0 0 0 0 0 0 0 0 0 -0 -0 -0 0 0 0 0 0 0 0 0 0
-0 -0 -0 -0 -0 -0 -0 -0 -0 -0 -0 -0 -0 -0 -0 -0 -0 -0 -0 -0 -0 -0 -0 0 0 0 0 0 0 0 0 0 0 0 -0 0 0 0 0 0 0 0 0
-0 -0 -0 -0 -0 -0 -0 -0 -0 -0 -0 -0 -0 -0 -0 -0 -0 -0 -0 -0 -0 -0 -0 -0 0 0 0 0 0 0 0 0 0 0 0 0 0 0 0 0 0 0 0
Wind_Speed_500mb
18 19 19 17 16 15 14 12 11 11 11 12 9 8 11 13 12 12 15 17 17 18 16 14 17 15 16 18 19 20 20 19 19 19 21 21 21 23 26 29 25 25 24
21 19 15 14 13 12 12 12 12 13 13 9 7 7 7 10 11 11 12 15 15 17 17 13 12 10 14 17 18 16 14 13 13 14 16 19 17 17 20 22 22 21 22
22 16 14 12 12 12 12 13 14 14 10 7 5 5 5 5 5 7 10 13 19 16 14 12 9 12 15 17 17 13 10 7 7 9 13 15 14 14 15 17 17 15 15
20 12 12 13 13 10 10 13 13 10 7 6 4 3 4 6 5 2 4 10 14 21 14 8 13 17 18 17 13 10 5 3 2 7 10 12 9 10 13 15 12 9 8
17 15 14 12 12 14 11 12 12 7 5 2 3 6 8 8 7 6 3 8 17 23 17 14 13 21 18 16 13 8 6 6 7 9 11 11 8 11 13 15 10 5 3
17 16 17 17 16 12 12 10 9 7 5 1 6 10 13 15 12 8 4 4 11 27 17 16 17 20 18 16 14 14 12 12 11 12 11 11 10 12 14 16 9 5 2
22 18 18 16 14 13 10 10 8 6 3 3 4 7 11 12 12 12 8 3 0 5 13 15 19 18 18 18 18 17 16 16 13 12 13 14 14 16 18 13 9 6 4
23 21 21 16 14 12 10 8 9 6 4 5 9 12 12 10 9 8 6 4 1 3 7 12 16 18 20 18 18 18 17 16 14 13 14 15 16 15 13 11 8 6 5
20 20 12 11 14 11 11 8 8 10 8 9 10 11 13 13 12 10 5 3 3 3 6 9 13 16 18 17 18 18 17 16 15 15 14 16 15 13 11 8 7 6 6
23 14 5 1 4 9 10 11 9 7 15 16 18 17 17 16 15 13 11 9 9 8 9 11 13 15 16 15 14 15 15 15 15 15 16 15 12 6 11 11 8 8 7
49 31 13 2 3 4 8 11 14 12 9 13 20 26 27 25 22 19 18 17 15 14 14 16 17 19 19 19 18 18 18 18 17 17 18 16 12 5 9 12 13 12 10
69 59 48 35 25 2 6 12 18 21 19 15 16 16 23 30 32 29 27 24 23 22 22 22 23 24 25 24 23 22 22 21 22 21 21 19 18 15 18 21 22 19 18
82 71 61 55 44 36 20 5 8 4 26 25 24 22 22 24 30 38 39 34 32 30 30 30 31 31 31 31 30 29 28 28 27 26 25 23 22 21 21 20 21 21 22
76 74 72 66 64 44 40 37 34 12 24 6 18 26 26 30 35 38 42 43 43 39 38 38 38 38 39 38 39 38 37 35 34 32 29 27 26 26 26 25 25 25 26
68 71 68 63 66 63 53 46 43 38 37 31 25 10 21 27 45 48 50 47 46 48 48 47 47 46 47 47 46 46 44 42 40 39 36 33 30 28 29 29 30 30 30
70 66 60 62 60 56 55 54 55 51 47 44 34 36 26 27 28 30 41 55 43 54 58 57 55 55 55 55 56 54 52 50 48 45 43 39 37 34 33 33 34 35 33
73 69 69 63 56 55 57 52 50 52 55 53 52 43 44 34 26 29 18 25 45 57 61 63 63 64 64 63 65 62 60 58 56 53 51 48 43 40 39 37 36 35 34
72 73 68 65 61 59 55 53 51 51 50 53 53 48 49 52 41 35 35 29 26 30 34 56 57 71 73 73 71 68 67 64 62 61 56 55 50 47 45 42 40 37 37
72 70 69 69 68 63 60 57 56 53 53 55 53 53 52 52 50 51 44 40 45 36 32 33 53 59 76 78 78 73 71 70 68 69 66 61 57 51 47 47 47 44 41
70 70 69 66 65 67 67 63 62 60 59 57 56 55 54 52 52 49 48 48 45 41 48 42 35 35 52 71 86 84 80 75 71 68 66 61 60 60 57 55 52 51 48
65 68 70 68 68 67 70 73 72 72 67 64 63 62 60 58 56 54 54 54 50 49 46 47 46 42 34 25 57 90 93 88 83 81 76 75 75 70 67 65 60 57 55
60 63 67 66 65 67 68 70 71 69 67 67 66 66 66 66 63 60 59 57 55 53 51 52 52 47 52 36 38 39 49 72 85 97 94 87 82 79 77 75 72 67 61
52 57 62 62 63 66 68 69 69 69 70 71 71 69 68 67 66 65 63 62 60 59 56 53 52 52 54 44 33 25 20 14 43 57 85 95 89 92 87 83 78 77 72
41 44 52 56 58 61 67 71 76 76 77 74 73 69 66 65 65 65 65 64 64 62 60 57 52 51 54 54 48 38 37 38 50 46 62 59 69 79 88 87 79 72 69
32 34 42 47 49 55 62 70 74 73 70 69 69 70 69 67 65 64 65 65 65 65 64 61 57 52 51 54 51 53 52 47 44 46 66 66 72 66 76 83 79 75 71
27 24 32 38 41 49 58 66 74 74 72 71 71 72 72 70 69 69 68 66 64 65 67 68 64 58 54 52 53 52 49 42 49 54 59 61 72 83 83 74 80 79 77
Wind_Direction_500mb
178 171 165 166 160 158 157 166 169 157 145 133 115 104 102 103 107 124 137 146 147 136 147 137 138 133 125 129 123 108 97 89 79 70 65 59 57 56 54 53 58 67 73
189 177 169 168 167 170 165 169 164 153 142 131 118 101 93 95 96 114 131 127 132 148 144 161 160 141 138 139 133 118 105 92 79 65 54 47 46 49 46 43 48 60 68
179 175 165 168 168 171 164 155 161 154 149 139 112 86 54 47 85 118 138 148 139 126 164 194 187 170 156 152 145 133 119 97 66 44 31 27 34 43 29 30 35 51 67
164 163 155 158 167 162 152 158 153 151 146 131 102 52 2 342 343 309 189 179 178 145 139 158 199 184 173 167 164 157 150 133 4 355 352 1 25 30 15 10 25 49 73
154 158 168 164 172 157 179 170 160 155 150 125 22 358 343 333 332 319 276 222 198 192 164 178 197 169 182 185 190 199 226 255 283 306 319 329 343 339 342 349 359 19 68
161 171 175 163 152 183 179 179 174 185 173 93 18 359 347 340 331 326 324 264 226 222 204 191 194 185 195 202 211 223 240 262 278 293 307 317 314 318 321 327 323 323 282
166 179 176 181 175 167 221 213 214 224 261 329 351 351 346 343 342 345 353 19 263 173 186 186 183 201 213 219 230 241 252 266 275 287 299 304 300 295 307 311 303 299 270
161 185 184 178 178 175 186 232 244 241 281 313 327 331 336 336 334 337 347 352 8 169 179 189 203 217 228 233 241 250 258 266 275 284 290 294 294 296 301 298 293 285 270
131 190 165 167 186 191 198 207 255 282 292 303 305 308 315 322 318 311 297 269 245 207 212 215 223 228 237 243 247 251 258 263 271 282 295 301 297 294 300 296 270 259 257
115 143 183 127 204 211 215 212 219 257 307 312 307 300 299 303 300 293 285 270 254 248 243 238 235 237 238 241 242 246 253 259 268 282 295 305 317 322 311 300 284 267 251
69 72 69 4 294 258 232 227 231 245 253 292 313 314 306 299 296 289 284 275 267 258 255 252 248 245 245 246 249 254 261 265 273 283 293 297 303 233 259 288 279 270 253
46 45 51 52 59 142 239 248 241 236 232 248 261 284 304 303 298 292 286 279 270 265 259 254 252 251 251 253 256 257 261 268 272 281 286 286 280 268 249 256 266 265 256
46 43 41 41 38 56 67 50 63 47 213 227 257 258 262 277 291 296 293 286 279 272 267 264 261 260 257 258 259 260 265 268 272 277 281 283 277 273 269 270 270 263 262
47 45 42 35 39 31 39 49 31 334 35 354 257 244 267 271 273 273 281 289 287 279 274 270 268 266 263 262 262 263 266 269 271 274 277 279 277 274 272 273 275 271 266
46 42 43 42 41 43 39 27 30 20 20 23 29 347 293 267 269 264 268 268 275 280 279 273 271 269 268 266 264 265 266 268 269 271 272 275 276 278 276 274 274 274 270
39 39 38 35 36 39 41 39 34 36 27 15 360 8 11 3 323 290 266 256 266 274 273 272 272 271 269 267 266 265 266 266 268 269 268 271 275 279 279 275 271 270 269
35 33 33 34 32 31 32 35 36 32 33 32 30 10 1 353 347 356 320 263 259 265 264 267 267 268 267 267 267 266 266 267 267 268 265 266 269 275 279 278 274 269 265
33 31 29 28 28 29 28 27 28 26 24 24 24 22 19 17 4 336 340 335 333 285 284 265 276 266 263 265 267 268 269 268 266 265 264 262 263 269 276 278 276 270 264
32 28 25 23 25 26 27 26 25 24 22 19 17 18 16 15 11 12 360 337 320 331 329 297 263 265 272 261 263 265 266 268 267 272 267 260 268 270 271 275 278 274 266
29 27 25 24 24 22 23 25 26 24 22 19 16 13 8 5 4 4 1 0 354 336 309 319 311 287 263 270 264 263 264 264 262 265 270 267 265 269 269 270 272 276 272
24 22 22 20 20 19 19 17 20 22 23 23 20 16 11 6 3 1 358 358 358 0 351 344 303 319 306 299 279 274 262 262 258 258 262 260 264 264 268 270 270 271 272
18 20 20 20 18 20 18 17 15 16 16 17 17 17 13 11 8 4 359 356 354 351 353 354 351 326 290 321 339 309 286 272 265 263 259 259 260 258 260 263 266 269 268
13 17 17 17 16 15 14 11 9 7 8 6 8 8 9 7 6 5 3 359 354 350 348 349 348 348 334 314 306 325 305 287 307 291 262 258 259 260 258 256 261 263 264
6 11 14 13 15 17 15 13 10 6 2 359 356 356 358 0 0 359 359 359 358 355 349 346 344 342 338 332 320 302 297 300 286 286 278 272 259 262 259 253 255 257 259
357 4 8 11 11 10 8 6 4 2 359 354 349 348 349 350 352 352 352 352 352 352 351 346 341 337 335 334 329 321 306 300 306 290 277 285 275 263 253 246 246 251 252
354 355 357 3 5 4 4 2 360 357 354 350 348 346 344 344 344 344 343 344 345 345 345 344 342 337 330 325 324 320 316 304 298 300 290 291 290 287 271 258 247 248 247
Wind_Speed_850mb
18 19 19 17 16 15 14 12 11 11 11 12 9 8 11 13 12 12 15 17 17 18 16 14 17 15 16 18 19 20 20 19 19 19 21 21 21 23 26 29 25 25 24
21 19 15 14 13 12 12 12 12 13 13 9 7 7 7 10 11 11 12 15 15 17 17 13 12 10 14 17 18 16 14 13 13 14 16 19 17 17 20 22 22 21 22
22 16 14 12 12 12 12 13 14 14 10 7 5 5 5 5 5 7 10 13 19 16 14 12 9 12 15 17 17 13 10 7 7 9 13 15 14 14 15 17 17 15 15
20 12 12 13 13 10 10 13 13 10 7 6 4 3 4 6 5 2 4 10 14 21 14 8 13 17 18 17 13 10 5 3 2 7 10 12 9 10 13 15 12 9 8
17 15 14 12 12 14 11 12 12 7 5 2 3 6 8 8 7 6 3 8 17 23 17 14 13 21 18 16 13 8 6 6 7 9 11 11 8 11 13 15 10 5 3
17 16 17 17 16 12 12 10 9 7 5 1 6 10 13 15 12 8 4 4 11 27 17 16 17 20 18 16 14 14 12 12 11 12 11 11 10 12 14 16 9 5 2
22 18 18 16 14 13 10 10 8 6 3 3 4 7 11 12 12 12 8 3 0 5 13 15 19 18 18 18 18 17 16 16 13 12 13 14 14 16 18 13 9 6 4
23 21 21 16 14 12 10 8 9 6 4 5 9 12 12 10 9 8 6 4 1 3 7 12 16 18 20 18 18 18 17 16 14 13 14 15 16 15 13 11 8 6 5
20 20 12 11 14 11 11 8 8 10 8 9 10 11 13 13 12 10 5 3 3 3 6 9 13 16 18 17 18 18 17 16 15 15 14 16 15 13 11 8 7 6 6
23 14 5 1 4 9 10 11 9 7 15 16 18 17 17 16 15 13 11 9 9 8 9 11 13 15 16 15 14 15 15 15 15 15 16 15 12 6 11 11 8 8 7
49 31 13 2 3 4 8 11 14 12 9 13 20 26 27 25 22 19 18 17 15 14 14 16 17 19 19 19 18 18 18 18 17 17 18 16 12 5 9 12 13 12 10
69 59 48 35 25 2 6 12 18 21 19 15 16 16 23 30 32 29 27 24 23 22 22 22 23 24 25 24 23 22 22 21 22 21 21 19 18 15 18 21 22 19 18
82 71 61 55 44 36 20 5 8 4 26 25 24 22 22 24 30 38 39 34 32 30 30 30 31 31 31 31 30 29 28 28 27 26 25 23 22 21 21 20 21 21 22
76 74 72 66 64 44 40 37 34 12 24 6 18 26 26 30 35 38 42 43 43 39 38 38 38 38 39 38 39 38 37 35 34 32 29 27 26 26 26 25 25 25 26
68 71 68 63 66 63 53 46 43 38 37 31 25 10 21 27 45 48 50 47 46 48 48 47 47 46 47 47 46 46 44 42 40 39 36 33 30 28 29 29 30 30 30
70 66 60 62 60 56 55 54 55 51 47 44 34 36 26 27 28 30 41 55 43 54 58 57 55 55 55 55 56 54 52 50 48 45 43 39 37 34 33 33 34 35 33
73 69 69 63 56 55 57 52 50 52 55 53 52 43 44 34 26 29 18 25 45 57 61 63 63 64 64 63 65 62 60 58 56 53 51 48 43 40 39 37 36 35 34
72 73 68 65 61 59 55 53 51 51 50 53 53 48 49 52 41 35 35 29 26 30 34 56 57 71 73 73 71 68 67 64 62 61 56 55 50 47 45 42 40 37 37
72 70 69 69 68 63 60 57 56 53 53 55 53 53 52 52 50 51 44 40 45 36 32 33 53 59 76 78 78 73 71 70 68 69 66 61 57 51 47 47 47 44 41
70 70 69 66 65 67 67 63 62 60 59 57 56 55 54 52 52 49 48 48 45 41 48 42 35 35 52 71 86 84 80 75 71 68 66 61 60 60 57 55 52 51 48
65 68 70 68 68 67 70 73 72 72 67 64 63 62 60 58 56 54 54 54 50 49 46 47 46 42 34 25 57 90 93 88 83 81 76 75 75 70 67 65 60 57 55
60 63 67 66 65 67 68 70 71 69 67 67 66 66 66 66 63 60 59 57 55 53 51 52 52 47 52 36 38 39 49 72 85 97 94 87 82 79 77 75 72 67 61
52 57 62 62 63 66 68 69 69 69 70 71 71 69 68 67 66 65 63 62 60 59 56 53 52 52 54 44 33 25 20 14 43 57 85 95 89 92 87 83 78 77 72
41 44 52 56 58 61 67 71 76 76 77 74 73 69 66 65 65 65 65 64 64 62 60 57 52 51 54 54 48 38 37 38 50 46 62 59 69 79 88 87 79 72 69
32 34 42 47 49 55 62 70 74 73 70 69 69 70 69 67 65 64 65 65 65 65 64 61 57 52 51 54 51 53 52 47 44 46 66 66 72 66 76 83 79 75 71
27 24 32 38 41 49 58 66 74 74 72 71 71 72 72 70 69 69 68 66 64 65 67 68 64 58 54 52 53 52 49 42 49 54 59 61 72 83 83 74 80 79 77
Wind_Direction_850mb
178 171 165 166 160 158 157 166 169 157 145 133 115 104 102 103 107 124 137 146 147 136 147 137 138 133 125 129 123 108 97 89 79 70 65 59 57 56 54 53 58 67 73
189 177 169 168 167 170 165 169 164 153 142 131 118 101 93 95 96 114 131 127 132 148 144 161 160 141 138 139 133 118 105 92 79 65 54 47 46 49 46 43 48 60 68
179 175 165 168 168 171 164 155 161 154 149 139 112 86 54 47 85 118 138 148 139 126 164 194 187 170 156 152 145 133 119 97 66 44 31 27 34 43 29 30 35 51 67
164 163 155 158 167 162 152 158 153 151 146 131 102 52 2 342 343 309 189 179 178 145 139 158 199 184 173 167 164 157 150 133 4 355 352 1 25 30 15 10 25 49 73
154 158 168 164 172 157 179 170 160 155 150 125 22 358 343 333 332 319 276 222 198 192 164 178 197 169 182 185 190 199 226 255 283 306 319 329 343 339 342 349 359 19 68
161 171 175 163 152 183 179 179 174 185 173 93 18 359 347 340 331 326 324 264 226 222 204 191 194 185 195 202 211 223 240 262 278 293 307 317 314 318 321 327 323 323 282
166 179 176 181 175 167 221 213 214 224 261 329 351 351 346 343 342 345 353 19 263 173 186 186 183 201 213 219 230 241 252 266 275 287 299 304 300 295 307 311 303 299 270
161 185 184 178 178 175 186 232 244 241 281 313 327 331 336 336 334 337 347 352 8 169 179 189 203 217 228 233 241 250 258 266 275 284 290 294 294 296 301 298 293 285 270
131 190 165 167 186 191 198 207 255 282 292 303 305 308 315 322 318 311 297 269 245 207 212 215 223 228 237 243 247 251 258 263 271 282 295 301 297 294 300 296 270 259 257
115 143 183 127 204 211 215 212 219 257 307 312 307 300 299 303 300 293 285 270 254 248 243 238 235 237 238 241 242 246 253 259 268 282 295 305 317 322 311 300 284 267 251
69 72 69 4 294 258 232 227 231 245 253 292 313 314 306 299 296 289 284 275 267 258 255 252 248 245 245 246 249 254 261 265 273 283 293 297 303 233 259 288 279 270 253
46 45 51 52 59 142 239 248 241 236 232 248 261 284 304 303 298 292 286 279 270 265 259 254 252 251 251 253 256 257 261 268 272 281 286 286 280 268 249 256 266 265 256
46 43 41 41 38 56 67 50 63 47 213 227 257 258 262 277 291 296 293 286 279 272 267 264 261 260 257 258 259 260 265 268 272 277 281 283 277 273 269 270 270 263 262
47 45 42 35 39 31 39 49 31 334 35 354 257 244 267 271 273 273 281 289 287 279 274 270 268 266 263 262 262 263 266 269 271 274 277 279 277 274 272 273 275 271 266
46 42 43 42 41 43 39 27 30 20 20 23 29 347 293 267 269 264 268 268 275 280 279 273 271 269 268 266 264 265 266 268 269 271 272 275 276 278 276 274 274 274 270
39 39 38 35 36 39 41 39 34 36 27 15 360 8 11 3 323 290 266 256 266 274 273 272 272 271 269 267 266 265 266 266 268 269 268 271 275 279 279 275 271 270 269
35 33 33 34 32 31 32 35 36 32 33 32 30 10 1 353 347 356 320 263 259 265 264 267 267 268 267 267 267 266 266 267 267 268 265 266 269 275 279 278 274 269 265
33 31 29 28 28 29 28 27 28 26 24 24 24 22 19 17 4 336 340 335 333 285 284 265 276 266 263 265 267 268 269 268 266 265 264 262 263 269 276 278 276 270 264
32 28 25 23 25 26 27 26 25 24 22 19 17 18 16 15 11 12 360 337 320 331 329 297 263 265 272 261 263 265 266 268 267 272 267 260 268 270 271 275 278 274 266
29 27 25 24 24 22 23 25 26 24 22 19 16 13 8 5 4 4 1 0 354 336 309 319 311 287 263 270 264 263 264 264 262 265 270 267 265 269 269 270 272 276 272
24 22 22 20 20 19 19 17 20 22 23 23 20 16 11 6 3 1 358 358 358 0 351 344 303 319 306 299 279 274 262 262 258 258 262 260 264 264 268 270 270 271 272
18 20 20 20 18 20 18 17 15 16 16 17 17 17 13 11 8 4 359 356 354 351 353 354 351 326 290 321 339 309 286 272 265 263 259 259 260 258 260 263 266 269 268
13 17 17 17 16 15 14 11 9 7 8 6 8 8 9 7 6 5 3 359 354 350 348 349 348 348 334 314 306 325 305 287 307 291 262 258 259 260 258 256 261 263 264
6 11 14 13 15 17 15 13 10 6 2 359 356 356 358 0 0 359 359 359 358 355 349 346 344 342 338 332 320 302 297 300 286 286 278 272 259 262 259 253 255 257 259
357 4 8 11 11 10 8 6 4 2 359 354 349 348 349 350 352 352 352 352 352 352 351 346 341 337 335 334 329 321 306 300 306 290 277 285 275 263 253 246 246 251 252
354 355 357 3 5 4 4 2 360 357 354 350 348 346 344 344 344 344 343 344 345 345 345 344 342 337 330 325 324 320 316 304 298 300 290 291 290 287 271 258 247 248 247